TimeCST,TemperatureF,Dew PointF,Humidity,Sea Level PressureIn,VisibilityMPH,Wind Direction,Wind SpeedMPH,Gust SpeedMPH,PrecipitationIn,Events,Conditions,WindDirDegrees,DateUTC
12:53 AM,27.0,16.0,63,30.03,10.0,NNW,16.1,20.7,N/A,,Clear,340,2012-12-10 06:53:00
1:53 AM,26.1,17.1,69,30.02,10.0,NNW,12.7,-,N/A,,Clear,340,2012-12-10 07:53:00
2:53 AM,25.0,17.1,72,30.03,10.0,NNW,9.2,-,N/A,,Partly Cloudy,330,2012-12-10 08:53:00
3:53 AM,25.0,16.0,69,30.03,10.0,NNW,11.5,-,N/A,,Mostly Cloudy,330,2012-12-10 09:53:00
4:53 AM,25.0,17.1,72,30.03,10.0,NNW,13.8,19.6,N/A,,Overcast,330,2012-12-10 10:53:00
5:53 AM,23.0,15.1,72,30.05,10.0,NW,13.8,-,N/A,,Overcast,310,2012-12-10 11:53:00
6:48 AM,23.0,15.8,74,30.05,10.0,NW,11.5,-,N/A,,Overcast,310,2012-12-10 12:48:00
6:53 AM,23.0,15.1,72,30.09,10.0,NW,12.7,-,N/A,,Overcast,310,2012-12-10 12:53:00
7:53 AM,23.0,16.0,74,30.10,10.0,NW,10.4,-,N/A,,Overcast,320,2012-12-10 13:53:00
8:53 AM,24.1,16.0,71,30.09,10.0,NNW,10.4,-,N/A,,Overcast,330,2012-12-10 14:53:00
10:53 AM,27.0,19.0,72,30.09,10.0,NW,6.9,-,N/A,,Mostly Cloudy,310,2012-12-10 16:53:00
11:53 AM,28.9,19.9,69,30.09,10.0,NW,8.1,-,N/A,,Mostly Cloudy,310,2012-12-10 17:53:00
12:01 PM,28.4,19.4,69,30.06,10.0,WNW,9.2,-,N/A,,Scattered Clouds,300,2012-12-10 18:01:00
12:09 PM,30.2,21.2,69,30.05,10.0,NW,10.4,-,N/A,,Mostly Cloudy,310,2012-12-10 18:09:00
12:18 PM,30.2,19.4,64,30.05,10.0,WNW,11.5,-,N/A,,Scattered Clouds,300,2012-12-10 18:18:00
12:53 PM,30.0,19.9,66,30.06,10.0,NNW,10.4,17.3,N/A,,Clear,330,2012-12-10 18:53:00
1:53 PM,30.9,19.0,61,30.06,10.0,NW,8.1,-,N/A,,Clear,320,2012-12-10 19:53:00
2:53 PM,32.0,19.9,61,30.05,10.0,NNW,8.1,-,N/A,,Clear,330,2012-12-10 20:53:00
3:53 PM,30.9,19.9,64,30.06,10.0,NW,9.2,-,N/A,,Clear,310,2012-12-10 21:53:00
4:53 PM,28.9,19.0,67,30.05,10.0,NW,6.9,-,N/A,,Clear,320,2012-12-10 22:53:00
5:53 PM,27.0,19.0,72,30.09,10.0,WNW,4.6,-,N/A,,Clear,290,2012-12-10 23:53:00
6:53 PM,26.1,19.0,75,30.09,10.0,WNW,3.5,-,N/A,,Clear,300,2012-12-11 00:53:00
7:53 PM,23.0,18.0,81,30.09,10.0,South,4.6,-,N/A,,Clear,180,2012-12-11 01:53:00
8:53 PM,21.9,18.0,85,30.10,10.0,West,3.5,-,N/A,,Clear,260,2012-12-11 02:53:00
9:53 PM,21.0,18.0,88,30.10,10.0,Calm,Calm,-,N/A,,Clear,0,2012-12-11 03:53:00
10:53 PM,21.0,18.0,88,30.11,10.0,Calm,Calm,-,N/A,,Clear,0,2012-12-11 04:53:00
11:53 PM,19.0,17.1,92,30.13,10.0,SSW,5.8,-,N/A,,Clear,210,2012-12-11 05:53:00